Voltar ao catálogo

START 1

AtivoMilitarLEO
NORAD 22561·PAYLOAD·🇷🇺 Russia

Lançado Mar 25, 1993 de Plesetsk Cosmodrome

Loading…

Próximas Passagens (próximas 24 horas)

TLE

AtualizadoSource: Space-Track

Época: Sep 14, 2026, 09:03 UTC

1 22561U 93014A   26257.37734309  .00000095  00000-0  40980-4 0  9990
2 22561  75.7595 233.2376 0193123 332.3108  26.7863 14.22606944736546

Acompanhe START 1 em tempo real com AllMySat

Download on the App Store